EW5670 Weather Reports


time (UTC)temp
C
wind
direction
speed
KPH
gust
KPH
rain 1hr
cm
rain 24hr
cm
rain mn
cm
humidity
%
barometer
mb
20260506135034 13 47 6.4 16.1 0.00 0.00 0.00 51 1015.0
20260506131036 13 20 6.4 16.1 0.00 0.00 0.00 50 1015.1
20260506130034 13 68 4.8 9.7 0.00 0.00 0.00 52 1015.2
20260506125038 13 49 4.8 11.3 0.00 0.00 0.00 52 1015.1
20260506123034 13 25 6.4 17.7 0.00 0.00 0.00 54 1015.1
20260506122035 13 11 6.4 17.7 0.00 0.00 0.00 55 1015.2
20260506121033 13 330 6.4 16.1 0.00 0.00 0.00 56 1015.2
20260506120034 13 304 4.8 11.3 0.00 0.00 0.00 55 1015.3
20260506115036 13 262 4.8 16.1 0.00 0.00 0.00 55 1015.3
20260506114036 13 37 4.8 12.9 0.00 0.00 0.00 56 1015.4
20260506113039 12 331 4.8 12.9 0.00 0.00 0.00 56 1015.5
20260506112036 12 348 4.8 14.5 0.00 0.00 0.00 56 1015.6
20260506111048 12 6 4.8 14.5 0.00 0.00 0.00 59 1015.7
20260506105034 12 354 3.2 8.0 0.00 0.00 0.00 61 1015.9
20260506103033 11 24 3.2 12.9 0.00 0.00 0.00 64 1015.8
20260506100037 11 53 3.2 16.1 0.00 0.00 0.00 65 1015.9
20260506094034 10 27 4.8 11.3 0.00 0.00 0.00 67 1015.9
20260506093034 10 334 6.4 12.9 0.00 0.00 0.00 67 1015.9
20260506092034 10 51 4.8 12.9 0.00 0.00 0.00 67 1015.9
20260506091034 10 32 4.8 11.3 0.00 0.00 0.00 69 1015.9
20260506085036 9 27 6.4 19.3 0.00 0.00 0.00 69 1016.0
20260506084034 8 332 8.0 20.9 0.00 0.00 0.00 70 1015.9
20260506081035 8 328 4.8 14.5 0.00 0.00 0.00 71 1015.9
20260506073033 7 41 4.8 11.3 0.00 0.00 0.00 74 1015.9
20260506062036 7 27 1.6 6.4 0.00 0.00 0.00 78 1015.5
20260506051032 7 12 3.2 9.7 0.00 0.00 0.00 77 1015.4
20260506045031 7 51 1.6 6.4 0.00 0.00 0.00 77 1015.2
20260506044032 7 13 1.6 8.0 0.00 0.00 0.00 77 1015.1
20260506043028 7 63 3.2 11.3 0.00 0.00 0.00 76 1015.2
20260506042035 7 46 1.6 11.3 0.00 0.00 0.00 76 1015.1
20260506041031 7 23 1.6 6.4 0.00 0.00 0.00 76 1015.1
20260506035030 7 8 3.2 9.7 0.00 0.00 0.00 76 1015.3
20260506034034 7 24 1.6 8.0 0.00 0.00 0.00 76 1015.1
20260506033028 8 351 3.2 6.4 0.00 0.00 0.00 76 1015.1
20260506032026 8 41 3.2 8.0 0.00 0.00 0.00 76 1015.3
20260506025027 8 55 6.4 12.9 0.00 0.00 0.00 75 1015.3
20260506024027 8 14 6.4 14.5 0.00 0.00 0.00 75 1015.4
20260506023020 8 49 4.8 12.9 0.00 0.00 0.00 75 1015.3
20260506022024 8 40 6.4 16.1 0.00 0.00 0.00 74 1015.2
20260506021015 8 41 4.8 12.9 0.00 0.00 0.00 74 1015.2
20260506020015 8 49 4.8 11.3 0.00 0.00 0.00 74 1015.1
20260506015015 8 4 6.4 16.1 0.00 0.00 0.00 74 1015.2
20260506014015 8 354 6.4 19.3 0.00 0.00 0.00 73 1015.3
20260506011015 9 13 0.0 4.8 0.00 0.00 0.00 78 1015.2
20260506010013 9 49 3.2 11.3 0.00 0.00 0.00 78 1015.2
20260506005012 9 20 4.8 9.7 0.00 0.00 0.00 78 1015.1
20260506004013 9 16 3.2 8.0 0.00 0.00 0.00 77 1015.2
20260506002013 9 49 3.2 12.9 0.00 0.00 0.00 76 1015.1
20260506001012 9 48 4.8 12.9 0.00 0.00 0.00 76 1015.0
20260506000013 9 60 4.8 14.5 0.00 0.00 0.00 75 1015.0
20260505235007 10 10 6.4 17.7 0.00 0.00 0.00 74 1015.1
20260505234009 10 49 8.0 17.7 0.00 0.00 0.00 73 1015.0
20260505232008 10 17 8.0 14.5 0.00 0.00 0.00 73 1015.0
20260505231010 10 64 9.7 20.9 0.00 0.00 0.00 73 1015.1
20260505230008 10 51 9.7 22.5 0.00 0.00 0.00 73 1015.1
20260505222006 11 23 3.2 9.7 0.00 0.00 0.00 76 1015.0
20260505221005 11 60 3.2 12.9 0.00 0.00 0.00 75 1014.9
20260505215005 11 7 8.0 16.1 0.00 0.00 0.00 74 1014.8
20260505214006 11 98 9.7 24.1 0.00 0.00 0.00 74 1014.8
20260505213006 11 39 8.0 19.3 0.00 0.00 0.00 74 1014.8
20260505210006 11 19 3.2 12.9 0.00 0.00 0.00 72 1014.8
20260505205006 11 34 1.6 6.4 0.00 0.00 0.00 73 1014.6
20260505204006 11 8 0.0 4.8 0.00 0.00 0.00 73 1014.5
20260505203006 11 320 1.6 4.8 0.00 0.00 0.00 73 1014.5
20260505202006 11 309 1.6 6.4 0.00 0.00 0.00 73 1014.4
20260505201006 12 327 1.6 3.2 0.00 0.00 0.00 72 1014.4
20260505200006 12 336 1.6 6.4 0.00 0.00 0.00 72 1014.3
20260505195014 12 288 1.6 8.0 0.00 0.00 0.00 72 1014.2
20260505194006 12 314 1.6 6.4 0.00 0.00 0.00 72 1014.1
20260505192006 12 331 3.2 9.7 0.00 0.00 0.00 70 1014.0
20260505191005 12 321 1.6 9.7 0.00 0.00 0.00 69 1014.1
20260505190006 12 331 1.6 8.0 0.00 0.00 0.00 68 1013.9
20260505184006 13 323 3.2 11.3 0.00 0.00 0.00 66 1013.7
20260505183008 13 331 3.2 14.5 0.00 0.00 0.00 66 1013.6
20260505182007 13 344 3.2 9.7 0.00 0.00 0.00 65 1013.7
20260505180008 13 351 3.2 9.7 0.00 0.00 0.00 64 1013.7
20260505174006 13 287 3.2 12.9 0.00 0.00 0.00 63 1013.7
20260505173033 13 302 3.2 9.7 0.00 0.00 0.00 63 1013.7
20260505172007 13 307 3.2 12.9 0.00 0.00 0.00 64 1013.8
20260505171006 13 276 4.8 12.9 0.00 0.00 0.00 63 1013.8
20260505170006 13 321 6.4 14.5 0.00 0.00 0.00 63 1013.9
20260505165006 14 345 6.4 14.5 0.00 0.00 0.00 62 1013.8
20260505164005 14 347 8.0 19.3 0.00 0.00 0.00 63 1013.8
20260505163009 14 18 4.8 14.5 0.00 0.00 0.00 63 1013.8
20260505161006 14 315 6.4 14.5 0.00 0.00 0.00 61 1013.7
20260505153006 15 63 3.2 14.5 0.00 0.00 0.00 59 1013.8
20260505152005 15 300 4.8 11.3 0.00 0.00 0.00 59 1013.9